This is the latest recevied weather packets stored in our database for station/object KB8TTR. If no packets are shown the sender has not sent any weather packets the latest 10 day(s).
| Time | Temp. | Humidity | Pressure | Rain* | Wind** | Luminosity | Snow |
|---|---|---|---|---|---|---|---|
| 1787788794 | 24.44° C | 68% | 1013.1 hPa | 0 mm | - | 3 W/m² | - |
| 1787788489 | 24.44° C | 68% | 1013.2 hPa | 0 mm | - | 5 W/m² | - |
| 1787788188 | 24.44° C | 67% | 1013.2 hPa | 0 mm | - | 6 W/m² | - |
| 1787787883 | 24.44° C | 67% | 1013.3 hPa | 0 mm | - | 11 W/m² | - |
| 1787787578 | 24.44° C | 67% | 1013.1 hPa | 0 mm | - | 8 W/m² | - |
| 1787787273 | 25° C | 67% | 1013.2 hPa | 0 mm | - | 11 W/m² | - |
| 1787786972 | 25° C | 66% | 1013.1 hPa | 0 mm | - | 14 W/m² | - |
| 1787786667 | 25° C | 66% | 1013.2 hPa | 0 mm | - | 19 W/m² | - |
| 1787786366 | 25° C | 66% | 1013.2 hPa | 0 mm | - | 26 W/m² | - |
| 1787786063 | 25° C | 65% | 1013.2 hPa | 0 mm | - | 33 W/m² | - |
| 1787785758 | 25° C | 65% | 1013.3 hPa | 0 mm | - | 37 W/m² | - |
| 1787785454 | 25° C | 66% | 1013.3 hPa | 0 mm | - | 41 W/m² | - |
| 1787785154 | 25° C | 66% | 1013.3 hPa | 0 mm | - | 47 W/m² | - |
| 1787784848 | 25° C | 67% | 1013.2 hPa | 0 mm | - | 45 W/m² | - |
| 1787784547 | 25° C | 67% | 1013.1 hPa | 0 mm | - | 38 W/m² | - |
| 1787784241 | 25° C | 67% | 1013.1 hPa | 0 mm | - | 51 W/m² | - |
| 1787783936 | 25° C | 67% | 1012.9 hPa | 0 mm | - | 62 W/m² | - |
| 1787783632 | 25° C | 68% | 1013.1 hPa | 0 mm | - | 76 W/m² | - |
| 1787783331 | 25° C | 66% | 1013.4 hPa | 0 mm | - | 90 W/m² | - |
| 1787783028 | 25° C | 67% | 1013.4 hPa | 0 mm | - | 101 W/m² | - |
| 1787782726 | 25° C | 68% | 1013.6 hPa | 0 mm | - | 104 W/m² | - |
| 1787782423 | 25.56° C | 68% | 1013.5 hPa | 0 mm | - | 96 W/m² | - |
| 1787782118 | 25.56° C | 65% | 1013.7 hPa | 0 mm | - | 73 W/m² | - |
| 1787781813 | 25.56° C | 61% | 1013.7 hPa | 0 mm | - | 22 W/m² | - |
| 1787781511 | 26.11° C | 61% | 1013.7 hPa | 0 mm | - | 24 W/m² | - |
* Rain latest hour (hover to see other rain measurements)
** Current wind speed in m/s (hover to see current wind gust speed)